Weather History for Bangor, ME

Change the Weather History Date:

Tuesday, December 6, 2011

  Actual Average Record
Temperature  
Mean Temperature 45 °F 29 °F  
Max Temperature 52 °F 37 °F 63 °F (2001)
Min Temperature 37 °F 20 °F -10 °F (1963)
Degree Days  
Heating Degree Days 20 36  
Month to date heating degree days 170 210  
Since 1 July heating degree days 1458 1879  
Cooling Degree Days 0 0  
Month to date cooling degree days 0 0  
Year to date cooling degree days 348 318  
Moisture  
Dew Point 44 °F    
Average Humidity 95    
Maximum Humidity 100    
Minimum Humidity 89    
Precipitation  
Precipitation 0.37 in 0.13 in 1.56 in (1983)
Month to date precipitation 0.40 0.79  
Year to date precipitation 40.87 39.24  
Snow  
Snow 0.00 in 0.30 in 10.00 in (2003)
Month to date snowfall 0.2 2.1  
Since 1 July snowfall 15.8 4.5  
Snow Depth 0.00 in    
Sea Level Pressure  
Sea Level Pressure 30.04 in    
Wind  
Wind Speed 6 mph (SSW)    
Max Wind Speed 15 mph    
Max Gust Speed 20 mph    
Visibility 4 miles    
Events Fog , Rain    
T = Trace of Precipitation, MM = Missing Value Source: NWS Daily Summary

Daily Weather History Graph

Daily Weather History Graph

Search for Another Location

Airport:

Trip Planner

Search our weather history database for the weather conditions in past years. The results will help you decide how hot, cold, wet, or windy it might be!

Date:

Astronomy

Dec. 06, 2011 Rise Set
Actual Time 6:57 AM EST 3:54 PM EST
Civil Twilight 6:24 AM EST 4:27 PM EST
Nautical Twilight 5:47 AM EST 5:04 PM EST
Astronomical Twilight 5:12 AM EST 5:40 PM EST
Moon 1:25 PM EST (12/6) 3:06 AM EST (12/6)
Length of Visible Light 10h 03m
Length of Day
8h 56m
Waxing Gibbous, 86% of the Moon is Illuminated
Dec 6
Waxing Gibbous
Dec 10
Full
Dec 17
Last Quarter
Dec 24
New
Jan 1
First Quarter

Hourly Weather History & Observations

Time (EST) Temp. Windchill Dew Point Humidity Pressure Visibility Wind Dir Wind Speed Gust Speed Precip Events Conditions
12:11 AM 46.4 °F 44.3 °F 44.6 °F 93% 30.15 in 2.5 mi South 4.6 mph - N/A   Overcast
12:20 AM 46.4 °F 44.3 °F 44.6 °F 93% 30.15 in 1.5 mi South 4.6 mph - N/A   Overcast
12:53 AM 46.0 °F 42.5 °F 46.0 °F 100% 30.14 in 1.8 mi South 6.9 mph - N/A   Mostly Cloudy
1:02 AM 46.4 °F 43.5 °F 46.4 °F 100% 30.13 in 2.5 mi South 5.8 mph - N/A   Overcast
1:06 AM 46.4 °F 42.4 °F 46.4 °F 100% 30.13 in 2.5 mi South 8.1 mph - N/A   Overcast
1:21 AM 46.4 °F 43.5 °F 46.4 °F 100% 30.12 in 1.5 mi South 5.8 mph - N/A   Overcast
1:33 AM 46.4 °F 45.2 °F 46.4 °F 100% 30.11 in 0.5 mi South 3.5 mph - N/A Fog Fog
1:49 AM 46.4 °F 44.3 °F 44.6 °F 93% 30.12 in 2.0 mi SSW 4.6 mph - N/A   Overcast
1:50 AM 46.0 °F 43.9 °F 45.0 °F 96% 30.12 in 2.5 mi SSW 4.6 mph - N/A   Overcast
2:53 AM 46.9 °F - 46.0 °F 97% 30.11 in 5.0 mi South 4.6 mph - N/A   Overcast
3:37 AM 46.4 °F 44.3 °F 46.4 °F 100% 30.10 in 6.0 mi South 4.6 mph - N/A   Overcast
3:53 AM 46.9 °F - 46.0 °F 97% 30.10 in 8.0 mi South 5.8 mph - N/A   Overcast
4:53 AM 48.0 °F - 46.0 °F 93% 30.08 in 8.0 mi South 5.8 mph - N/A   Overcast
5:53 AM 48.0 °F - 46.9 °F 96% 30.09 in 9.0 mi SSW 3.5 mph - 0.00 in Rain Light Rain
6:53 AM 48.9 °F - 46.9 °F 93% 30.08 in 8.0 mi South 5.8 mph - 0.01 in Rain Light Rain
7:53 AM 48.9 °F - 46.9 °F 93% 30.07 in 6.0 mi South 5.8 mph - 0.00 in Rain Light Rain
8:53 AM 50.0 °F - 48.0 °F 93% 30.06 in 7.0 mi South 5.8 mph - 0.00 in Rain Light Rain
9:42 AM 51.8 °F - 48.2 °F 88% 30.05 in 6.0 mi South 8.1 mph - 0.01 in Rain Light Rain
9:53 AM 51.1 °F - 48.9 °F 92% 30.05 in 7.0 mi SSW 6.9 mph - 0.01 in Rain Light Rain
10:34 AM 51.8 °F - 50.0 °F 94% 30.02 in 2.0 mi South 4.6 mph - 0.03 in Rain Rain
10:53 AM 52.0 °F - 51.1 °F 97% 30.01 in 1.5 mi South 4.6 mph - 0.05 in Rain Light Rain
11:53 AM 52.0 °F - 51.1 °F 97% 29.99 in 1.5 mi Calm Calm - 0.10 in Rain Light Rain
12:20 PM 51.8 °F - 51.8 °F 100% 29.97 in 1.5 mi Calm Calm - 0.01 in   Overcast
12:32 PM 48.2 °F - 48.2 °F 100% 29.97 in 0.8 mi North 5.8 mph - 0.01 in Rain Light Rain
12:53 PM 48.9 °F - 48.0 °F 97% 29.97 in 0.8 mi North 4.6 mph - 0.02 in Rain Light Rain
1:53 PM 48.2 °F - 46.4 °F 93% 29.96 in 0.8 mi North 8.1 mph - N/A Rain Light Rain
2:53 PM 46.9 °F - 45.0 °F 93% 29.98 in 2.0 mi North 6.9 mph - 0.01 in   Overcast
3:53 PM 46.0 °F 41.9 °F 44.1 °F 93% 29.99 in 2.0 mi North 8.1 mph - 0.00 in   Light Drizzle
4:53 PM 44.1 °F 39.0 °F 43.0 °F 96% 30.00 in 2.0 mi North 9.2 mph - 0.00 in   Light Drizzle
5:53 PM 42.1 °F 36.1 °F 39.9 °F 92% 30.00 in 2.0 mi North 10.4 mph - 0.01 in   Light Drizzle
6:11 PM 41.0 °F 35.2 °F 39.2 °F 93% 30.00 in 3.0 mi North 9.2 mph - 0.00 in   Light Drizzle
6:13 PM 41.0 °F 35.2 °F 39.2 °F 93% 30.00 in 5.0 mi North 9.2 mph - 0.00 in   Light Drizzle
6:42 PM 41.0 °F 35.2 °F 39.2 °F 93% 30.00 in 5.0 mi NNE 9.2 mph - 0.01 in   Light Drizzle
6:53 PM 41.0 °F 34.7 °F 39.0 °F 93% 30.01 in 5.0 mi NNE 10.4 mph - 0.01 in Rain Light Rain
7:53 PM 39.0 °F 33.4 °F 37.0 °F 93% 30.00 in 8.0 mi North 8.1 mph - 0.01 in   Overcast
8:53 PM 37.9 °F 30.9 °F 36.0 °F 93% 29.99 in 10.0 mi North 10.4 mph - N/A   Overcast
9:27 PM 37.4 °F 30.3 °F 35.6 °F 93% 29.99 in 2.0 mi North 10.4 mph - 0.00 in Rain Light Rain
9:53 PM 37.0 °F 31.0 °F 36.0 °F 96% 29.99 in 2.0 mi North 8.1 mph - 0.04 in Rain Light Rain
10:14 PM 37.4 °F 30.8 °F 35.6 °F 93% 29.98 in 4.0 mi North 9.2 mph - 0.02 in Rain Light Rain
10:53 PM 37.0 °F 31.0 °F 35.1 °F 93% 29.97 in 3.0 mi NNE 8.1 mph - 0.06 in Rain Light Rain
11:53 PM 37.0 °F 31.0 °F 35.1 °F 93% 29.96 in 10.0 mi North 8.1 mph - 0.03 in Rain Light Rain